STARLINK-5496, 56886

Orbit data source: Space-Track

STARLINK-5496, 56886 is a payload satellite owned by SpaceX/Seattle (US) in LEO that was launched on Mon, 12 Jun 2023 UTC via an FALCON 9 launch vehicle from the Air Force Eastern Test Range (AFETR). Payload-class satellites include a variety of spacecraft equipped with specific instruments for various scientific and technological missions. These include communications satellites like Starlink; space stations such as the ISS; scientific satellites like the Hubble; Earth observation satellites from companies like Planet Labs, Umbra, and HawkEye 360; GPS; miniature CubeSats for education and research; and military/defense satellites.

Loading next visibility...
Identifier
56886, 2023-083L
Orbit
LEO
Country
Flag of USUS
Related business
Manufacturer
SpaceX/Seattle
Mission
Operational Commercial Communications
Bus & Motor
STARLINK, Unknown motor
Mass
305 kg wet, ~290 kg dry
Launch date (UTC)
2023-06-12 (3 years ago)
Launch vehicle
FALCON 9
Launch site
Air Force Eastern Test Range (AFETR)
Object type
Payload
Rocket body
Debris
Shape & HBR
Box + 1 Pan, 10.1 m
Radar Cross Section
11.087 m², Large (>1 m²)

Expand to show TLE details & history
Last TLE update: 2 days ago

TLE from 2 days ago
0 STARLINK-5496
1 56886U 23083L   26171.21201745  .00000823  00000-0  39441-4 0  9996
2 56886  43.0031 225.8777 0001987 272.8142  87.2482 15.27579535167313
Epoch: 2026-06-20T05:05Z
TLE epoch observation values (Epoch: 2026-06-20T05:05:18.307Z)
Latitude
-0.00004°
Longitude
-118.87851°
Altitude
482.761 km
Speed
7.626 km/s
True Right ascension
15h 03m 30s
True Declination
0° 00' 00"
Sunlit
Object was in full shadow at epoch
Visualization orbit readout
Latitude
Unknown
Longitude
Unknown
Altitude
Unknown
Speed
Unknown
Apparent Right ascension
Unknown
Apparent Declination
Unknown
Sunlit
N/A
Visualization observer readout
Local Sidereal Time
21:29:53
Azimuth
Unknown
Elevation
Unknown
Doppler factor
Unknown
Orbital elements
Apogee altitude
486.359 km
Perigee altitude
483.631 km
Semi-major axis
6,863.132 km
Eccentricity
0.0002
Inclination
43.0031°
RAAN
225.8777°
Arg. of periapsis
272.8142°
True anomaly
87.27094°
Mean anomaly
87.2482°
Eccentric anomaly
87.25957°
Mean motion
3.81733 °/min
Orbital period
94.31 mins
BSTAR
0.000039441
Loading maneuver chart data...
Computing Atmospheric mass density...
Loading historical data...
Loading historical data...
Loading historical data...
Loading historical data...
Loading historical data...
Loading historical data...
Loading historical data...

Documentation

Showing up to 5 results
|